Ashland, MO

6:10 AM CDT on July 26, 2016 (GMT -0500)
Columbia Regional

Weather History for KCOU - February, 2011

Change the Weather History Date:

Friday, February 25, 2011

  Actual Average Record
Temperature  
Mean Temperature 29 °F 38 °F  
Max Temperature 31 °F 48 °F 74 °F (1981)
Min Temperature 27 °F 28 °F -1 °F (2003)
Degree Days  
Heating Degree Days 36 27  
Month to date heating degree days 842 777  
Since 1 July heating degree days 4000 3866  
Cooling Degree Days 0 0  
Month to date cooling degree days 0 0  
Year to date cooling degree days 0 0  
Moisture  
Dew Point 27 °F    
Average Humidity 96    
Maximum Humidity 100    
Minimum Humidity 92    
Precipitation  
Precipitation T in 0.09 in 1.45 in (1899)
Month to date precipitation 2.73 1.99  
Year to date precipitation 3.76 3.91  
Snow  
Snow 0.00 in 0.10 in 9.80 in (1993)
Month to date snowfall 23.3 4.3  
Since 1 July snowfall 45.6 15.7  
Snow Depth 0.00 in    
Sea Level Pressure  
Sea Level Pressure 30.14 in    
Wind  
Wind Speed 8 mph (NNE)    
Max Wind Speed 22 mph    
Max Gust Speed 28 mph    
Visibility 5 miles    
Events Rain , Snow    
T = Trace of Precipitation, MM = Missing Value Source: NWS Daily Summary

Daily Weather History Graph

Daily Weather History Graph

Search for Another Location

Airport or City:

Trip Planner

Search our weather history database for the weather conditions in past years. The results will help you decide how hot, cold, wet, or windy it might be!

Date:

Astronomy

Feb. 25, 2011 Rise Set
Actual Time 6:47 AM CST 5:57 PM CST
Civil Twilight 6:20 AM CST 6:24 PM CST
Nautical Twilight 5:49 AM CST 6:54 PM CST
Astronomical Twilight 5:18 AM CST 7:25 PM CST
Moon 1:48 AM CST (2/25) 11:20 AM CST (2/25)
Length of Visible Light 12h 03m
Length of Day
11h 09m
Last Quarter, 42% of the Moon is Illuminated
Feb 25
Last Quarter
Mar 4
New
Mar 12
First Quarter
Mar 19
Full
Mar 26
Last Quarter

Hourly Weather History & Observations

Time (CST) Temp. Windchill Dew Point Humidity Pressure Visibility Wind Dir Wind Speed Gust Speed Precip Events Conditions
12:17 AM 30.2 °F 17.8 °F - N/A% 29.89 in 2.5 mi NNE 19.6 mph 25.3 mph 0.00 in Snow Light Snow
12:54 AM 30.9 °F 19.4 °F - N/A% 29.95 in 3.0 mi North 17.3 mph - 0.00 in Snow Light Snow
1:30 AM 30.2 °F 19.3 °F - N/A% 29.95 in 8.0 mi NNE 15.0 mph - 0.00 in   Overcast
1:54 AM 30.9 °F 20.7 °F - N/A% 29.98 in 8.0 mi North 13.8 mph - 0.00 in   Overcast
2:54 AM 30.9 °F 19.4 °F - N/A% 30.02 in 7.0 mi North 17.3 mph - N/A   Overcast
3:18 AM 30.2 °F 19.8 °F 30.2 °F 100% 30.01 in 7.0 mi North 13.8 mph - N/A   Overcast
3:54 AM 30.9 °F 21.2 °F 30.0 °F 96% 30.06 in 8.0 mi North 12.7 mph - N/A   Overcast
4:40 AM 30.2 °F 20.8 °F 28.4 °F 93% 30.07 in 6.0 mi North 11.5 mph - N/A   Overcast
4:54 AM 30.0 °F 19.1 °F 28.9 °F 96% 30.09 in 7.0 mi North 15.0 mph - N/A   Overcast
5:27 AM 30.2 °F 19.3 °F 28.4 °F 93% 30.09 in 7.0 mi North 15.0 mph - N/A   Overcast
5:54 AM 30.0 °F 19.1 °F 28.0 °F 92% 30.12 in 7.0 mi North 15.0 mph - N/A   Overcast
6:54 AM 30.0 °F 22.4 °F 28.9 °F 96% 30.14 in 6.0 mi North 8.1 mph - N/A   Overcast
7:54 AM 30.0 °F 21.7 °F 28.9 °F 96% 30.21 in 6.0 mi North 9.2 mph - N/A   Overcast
8:54 AM 30.2 °F 23.4 °F 28.4 °F 93% 30.19 in 7.0 mi North 6.9 mph - N/A   Overcast
9:54 AM 30.0 °F 23.2 °F 28.9 °F 96% 30.22 in 8.0 mi NNE 6.9 mph - N/A   Overcast
10:54 AM 30.2 °F 24.3 °F 28.4 °F 93% 30.22 in 5.0 mi North 5.8 mph - N/A   Overcast
11:36 AM 28.4 °F 19.1 °F 28.4 °F 100% 30.24 in 2.5 mi NW 10.4 mph - N/A   Overcast
11:54 AM 28.0 °F 19.3 °F 27.0 °F 96% 30.27 in 2.0 mi NW 9.2 mph - N/A   Overcast
12:54 PM 27.0 °F 18.7 °F 26.1 °F 96% 30.24 in 2.0 mi NW 8.1 mph - N/A   Overcast
1:54 PM 28.0 °F 19.3 °F 27.0 °F 96% 30.22 in 3.0 mi North 9.2 mph - N/A   Overcast
2:54 PM 28.0 °F 20.8 °F 27.0 °F 96% 30.21 in 4.0 mi North 6.9 mph - N/A   Overcast
3:54 PM 28.0 °F 22.8 °F 27.0 °F 96% 30.20 in 5.0 mi North 4.6 mph - N/A   Overcast
4:54 PM 28.0 °F 24.2 °F 27.0 °F 96% 30.21 in 5.0 mi North 3.5 mph - N/A   Overcast
5:54 PM 27.0 °F 20.5 °F 26.1 °F 96% 30.21 in 4.0 mi ENE 5.8 mph - N/A   Overcast
6:12 PM 26.6 °F 21.2 °F 26.6 °F 100% 30.18 in 6.0 mi NE 4.6 mph - N/A   Overcast
6:54 PM 27.0 °F 23.0 °F 25.0 °F 92% 30.20 in 8.0 mi NE 3.5 mph - N/A   Overcast
7:27 PM 26.6 °F 20.0 °F 24.8 °F 93% 30.15 in 7.0 mi ENE 5.8 mph - N/A   Overcast
7:38 PM 28.4 °F 22.2 °F 26.6 °F 93% 30.15 in 7.0 mi NE 5.8 mph - N/A   Overcast
7:54 PM 28.0 °F 22.8 °F 26.1 °F 92% 30.19 in 7.0 mi NNE 4.6 mph - N/A   Overcast
8:43 PM 28.4 °F 24.6 °F 26.6 °F 93% 30.15 in 7.0 mi NNE 3.5 mph - N/A   Overcast
8:54 PM 28.0 °F 24.2 °F 26.1 °F 92% 30.19 in 7.0 mi North 3.5 mph - N/A   Overcast
9:13 PM 28.4 °F 23.3 °F 26.6 °F 93% 30.16 in 7.0 mi ENE 4.6 mph - N/A   Overcast
9:54 PM 28.0 °F - 26.1 °F 92% 30.19 in 4.0 mi North - - N/A   Overcast
10:27 PM 28.4 °F 23.3 °F 26.6 °F 93% 30.15 in 3.0 mi East 4.6 mph - 0.00 in   Overcast
10:37 PM 28.4 °F 23.3 °F 26.6 °F 93% 30.15 in 3.0 mi ENE 4.6 mph - N/A Rain Light Freezing Rain
10:54 PM 28.0 °F 21.7 °F 26.1 °F 92% 30.17 in 3.0 mi ENE 5.8 mph - 0.00 in Rain Light Freezing Rain
11:27 PM 26.6 °F 20.0 °F 26.6 °F 100% 30.14 in 4.0 mi ENE 5.8 mph - 0.00 in   Overcast
11:39 PM 28.4 °F 22.2 °F 26.6 °F 93% 30.14 in 4.0 mi NE 5.8 mph - 0.00 in   Overcast
11:54 PM 28.0 °F 20.8 °F 26.1 °F 92% 30.16 in 2.5 mi NE 6.9 mph - 0.00 in   Overcast